Retour au catalogue

DELTA 1 DEB

ActifSSO
NORAD 42657·DEBRIS·🇺🇸 United States

Lancé Jun 12, 1975 depuis Vandenberg Space Force Base

Loading…

Prochains Passages (prochaines 24 heures)

TLE

FraisSource: Space-Track

Époque: Sep 12, 2026, 12:10 UTC

1 42657U 75052MS  26255.50739549  .00000010  00000-0  78046-4 0  9995
2 42657  99.6594 152.8476 0045810 128.9761 231.5471 13.54523011633003

Suivez DELTA 1 DEB en temps réel avec AllMySat

Download on the App Store